Time,TemperatureF,DewpointF,PressureIn,WindDirection,WindDirectionDegrees,WindSpeedMPH,WindSpeedGustMPH,Humidity,HourlyPrecipIn,Conditions,Clouds,dailyrainin,SoftwareType,DateUTC
2013-02-03 00:00:00,33.9,33.9,30.14,ESE,119,0.0,0.0,100,0.00,,,0.00,Meteorologica,2013-02-03 05:00:00,
2013-02-03 00:01:00,34.0,34.0,30.14,ESE,119,0.0,0.0,100,0.00,,,0.00,Meteorologica,2013-02-03 05:01:00,
2013-02-03 00:06:00,34.0,34.0,30.13,ESE,119,0.0,0.0,100,0.00,,,0.00,Meteorologica,2013-02-03 05:06:00,
2013-02-03 00:11:00,34.0,34.0,30.14,ESE,119,0.0,0.0,100,0.00,,,0.00,Meteorologica,2013-02-03 05:11:00,
2013-02-03 00:16:00,33.7,33.7,30.14,ESE,119,0.0,0.0,100,0.00,,,0.00,Meteorologica,2013-02-03 05:16:00,
2013-02-03 00:21:00,33.7,33.7,30.14,ESE,119,0.0,0.0,100,0.00,,,0.00,Meteorologica,2013-02-03 05:21:00,
2013-02-03 00:26:00,33.8,33.8,30.14,ESE,119,0.0,0.0,100,0.00,,,0.00,Meteorologica,2013-02-03 05:26:00,
2013-02-03 00:31:00,33.7,33.7,30.13,ESE,119,0.0,0.0,100,0.00,,,0.00,Meteorologica,2013-02-03 05:31:00,
2013-02-03 00:36:00,33.7,33.7,30.14,ESE,119,0.0,0.0,100,0.00,,,0.00,Meteorologica,2013-02-03 05:36:00,
2013-02-03 00:41:00,33.8,33.8,30.14,ESE,119,0.0,0.0,100,0.00,,,0.00,Meteorologica,2013-02-03 05:41:00,
2013-02-03 00:47:00,33.7,33.7,30.14,ESE,119,0.0,0.0,100,0.00,,,0.00,Meteorologica,2013-02-03 05:47:00,
2013-02-03 00:52:00,33.6,33.6,30.14,ESE,119,0.0,0.0,100,0.00,,,0.00,Meteorologica,2013-02-03 05:52:00,
2013-02-03 00:57:00,33.5,33.5,30.13,ESE,119,0.0,0.0,100,0.00,,,0.00,Meteorologica,2013-02-03 05:57:00,
2013-02-03 01:02:00,33.3,33.3,30.13,ESE,119,0.0,0.0,100,0.00,,,0.00,Meteorologica,2013-02-03 06:02:00,
2013-02-03 01:07:00,33.3,33.3,30.13,ESE,119,0.0,0.0,100,0.00,,,0.00,Meteorologica,2013-02-03 06:07:00,
2013-02-03 01:13:00,33.3,33.3,30.13,ESE,119,0.0,0.0,100,0.00,,,0.00,Meteorologica,2013-02-03 06:13:00,
2013-02-03 01:18:00,33.4,33.4,30.12,ESE,119,0.0,0.0,100,0.00,,,0.00,Meteorologica,2013-02-03 06:18:00,
2013-02-03 01:23:00,33.4,33.4,30.13,SE,134,1.7,0.0,100,0.00,,,0.00,Meteorologica,2013-02-03 06:23:00,
2013-02-03 01:28:00,33.4,33.4,30.12,East,93,0.0,2.7,100,0.00,,,0.00,Meteorologica,2013-02-03 06:28:00,
2013-02-03 01:33:00,33.3,33.3,30.12,East,93,0.0,2.8,100,0.00,,,0.00,Meteorologica,2013-02-03 06:33:00,
2013-02-03 01:39:00,33.2,33.2,30.12,East,93,0.0,0.0,100,0.00,,,0.00,Meteorologica,2013-02-03 06:39:00,
2013-02-03 01:44:00,33.2,33.2,30.12,East,93,0.0,0.0,100,0.00,,,0.00,Meteorologica,2013-02-03 06:44:00,
2013-02-03 02:00:00,33.0,33.0,30.12,East,83,0.0,0.0,100,0.00,,,0.00,Meteorologica,2013-02-03 07:00:00,
2013-02-03 02:05:00,32.8,32.8,30.12,East,83,0.0,0.0,100,0.00,,,0.00,Meteorologica,2013-02-03 07:05:00,
2013-02-03 02:10:00,32.8,32.8,30.11,East,83,0.0,0.0,100,0.00,,,0.00,Meteorologica,2013-02-03 07:10:00,
2013-02-03 02:15:00,32.6,32.6,30.11,East,83,0.0,0.0,100,0.00,,,0.00,Meteorologica,2013-02-03 07:15:00,
2013-02-03 02:20:00,32.5,32.5,30.11,East,83,0.0,0.0,100,0.00,,,0.00,Meteorologica,2013-02-03 07:20:00,
2013-02-03 02:26:00,32.5,32.5,30.11,East,83,0.0,0.0,100,0.00,,,0.00,Meteorologica,2013-02-03 07:26:00,
2013-02-03 02:31:00,32.4,32.4,30.11,East,83,0.0,0.0,100,0.00,,,0.00,Meteorologica,2013-02-03 07:31:00,
2013-02-03 02:36:00,32.4,32.4,30.11,East,83,0.0,0.0,100,0.00,,,0.00,Meteorologica,2013-02-03 07:36:00,
2013-02-03 02:41:00,32.4,32.4,30.11,East,83,0.0,0.0,100,0.00,,,0.00,Meteorologica,2013-02-03 07:41:00,
2013-02-03 02:46:00,32.4,32.4,30.11,ESE,122,0.1,0.0,100,0.00,,,0.00,Meteorologica,2013-02-03 07:46:00,
2013-02-03 02:51:00,32.5,32.5,30.11,ESE,110,0.0,0.8,100,0.00,,,0.00,Meteorologica,2013-02-03 07:51:00,
2013-02-03 02:56:00,32.5,32.5,30.11,SE,129,0.1,3.0,100,0.00,,,0.00,Meteorologica,2013-02-03 07:56:00,
2013-02-03 03:01:00,32.5,32.5,30.11,SE,129,0.0,0.6,100,0.00,,,0.00,Meteorologica,2013-02-03 08:01:00,
2013-02-03 03:07:00,32.5,32.5,30.11,SE,129,0.0,0.0,100,0.00,,,0.00,Meteorologica,2013-02-03 08:07:00,
2013-02-03 03:12:00,32.4,32.4,30.11,SE,129,0.0,0.0,100,0.00,,,0.00,Meteorologica,2013-02-03 08:12:00,
2013-02-03 03:17:00,32.6,32.6,30.11,SE,129,0.0,0.0,100,0.00,,,0.00,Meteorologica,2013-02-03 08:17:00,
2013-02-03 03:23:00,32.6,32.6,30.10,SE,129,0.0,0.0,100,0.00,,,0.00,Meteorologica,2013-02-03 08:23:00,
2013-02-03 03:28:00,32.6,32.6,30.10,SE,129,0.0,0.0,100,0.00,,,0.00,Meteorologica,2013-02-03 08:28:00,
2013-02-03 03:33:00,32.7,32.7,30.10,SE,129,0.0,0.0,100,0.00,,,0.00,Meteorologica,2013-02-03 08:33:00,
2013-02-03 03:38:00,32.8,32.8,30.10,SE,129,0.0,0.0,100,0.00,,,0.00,Meteorologica,2013-02-03 08:38:00,
2013-02-03 03:44:00,32.6,32.6,30.09,SE,129,0.0,0.0,100,0.00,,,0.00,Meteorologica,2013-02-03 08:44:00,
2013-02-03 03:49:00,32.7,32.7,30.09,SE,129,0.0,0.0,100,0.00,,,0.00,Meteorologica,2013-02-03 08:49:00,
2013-02-03 03:54:00,32.6,32.6,30.09,SE,129,0.0,0.0,100,0.00,,,0.00,Meteorologica,2013-02-03 08:54:00,
2013-02-03 04:00:00,32.7,32.7,30.09,SE,129,0.0,0.0,100,0.00,,,0.00,Meteorologica,2013-02-03 09:00:00,
2013-02-03 04:05:00,32.6,32.6,30.09,SE,129,0.0,0.0,100,0.00,,,0.00,Meteorologica,2013-02-03 09:05:00,
2013-02-03 04:10:00,32.6,32.6,30.09,SE,129,0.0,0.0,100,0.00,,,0.00,Meteorologica,2013-02-03 09:10:00,
2013-02-03 04:16:00,32.6,32.6,30.09,SE,129,0.0,0.0,100,0.00,,,0.00,Meteorologica,2013-02-03 09:16:00,
2013-02-03 04:21:00,32.5,32.5,30.08,SSE,148,0.0,5.3,100,0.00,,,0.00,Meteorologica,2013-02-03 09:21:00,
2013-02-03 04:26:00,32.5,32.5,30.08,SSE,167,0.0,2.8,100,0.00,,,0.00,Meteorologica,2013-02-03 09:26:00,
2013-02-03 04:31:00,32.4,32.4,30.08,SE,146,1.7,4.2,100,0.00,,,0.00,Meteorologica,2013-02-03 09:31:00,
2013-02-03 04:36:00,32.3,32.3,30.08,South,182,1.2,3.4,100,0.00,,,0.00,Meteorologica,2013-02-03 09:36:00,
2013-02-03 04:41:00,32.3,32.3,30.08,South,182,0.0,2.6,100,0.00,,,0.00,Meteorologica,2013-02-03 09:41:00,
2013-02-03 04:46:00,32.3,32.3,30.08,South,179,2.7,5.1,100,0.00,,,0.00,Meteorologica,2013-02-03 09:46:00,
2013-02-03 04:51:00,32.1,32.1,30.07,South,176,3.3,4.2,100,0.00,,,0.00,Meteorologica,2013-02-03 09:51:00,
2013-02-03 04:56:00,32.2,32.2,30.07,SSW,207,3.3,6.2,100,0.00,,,0.00,Meteorologica,2013-02-03 09:56:00,
2013-02-03 05:01:00,32.4,32.4,30.07,SW,223,3.8,5.6,100,0.00,,,0.00,Meteorologica,2013-02-03 10:01:00,
2013-02-03 05:06:00,32.3,32.3,30.07,SSW,202,3.3,5.4,100,0.00,,,0.00,Meteorologica,2013-02-03 10:06:00,
2013-02-03 05:11:00,32.3,32.3,30.07,South,173,1.9,5.4,100,0.00,,,0.00,Meteorologica,2013-02-03 10:11:00,
2013-02-03 05:16:00,32.4,32.4,30.07,South,175,2.5,4.7,100,0.00,,,0.00,Meteorologica,2013-02-03 10:16:00,
2013-02-03 05:21:00,32.4,32.4,30.06,SSW,203,3.8,5.2,100,0.00,,,0.00,Meteorologica,2013-02-03 10:21:00,
2013-02-03 05:26:00,32.4,32.4,30.07,SSW,197,2.8,6.6,100,0.00,,,0.00,Meteorologica,2013-02-03 10:26:00,
2013-02-03 05:31:00,32.5,32.5,30.06,South,189,2.8,5.8,100,0.00,,,0.00,Meteorologica,2013-02-03 10:31:00,
2013-02-03 05:36:00,32.5,32.5,30.06,South,191,2.7,5.9,100,0.00,,,0.00,Meteorologica,2013-02-03 10:36:00,
2013-02-03 05:41:00,32.5,32.5,30.05,South,180,2.8,3.7,100,0.00,,,0.00,Meteorologica,2013-02-03 10:41:00,
2013-02-03 05:46:00,32.5,32.5,30.05,South,180,0.0,5.0,100,0.00,,,0.00,Meteorologica,2013-02-03 10:46:00,
2013-02-03 05:51:00,32.5,32.5,30.05,South,180,0.0,0.0,100,0.00,,,0.00,Meteorologica,2013-02-03 10:51:00,
2013-02-03 05:56:00,32.4,32.4,30.06,SSE,163,0.0,3.5,100,0.00,,,0.00,Meteorologica,2013-02-03 10:56:00,
2013-02-03 06:01:00,32.5,32.5,30.06,SSW,203,1.0,3.7,100,0.00,,,0.00,Meteorologica,2013-02-03 11:01:00,
2013-02-03 06:06:00,32.3,32.3,30.06,SSW,201,0.0,2.6,100,0.00,,,0.00,Meteorologica,2013-02-03 11:06:00,
2013-02-03 06:11:00,32.4,32.4,30.06,SSW,201,0.0,0.0,100,0.00,,,0.00,Meteorologica,2013-02-03 11:11:00,
2013-02-03 06:16:00,32.4,32.4,30.06,SW,214,3.4,8.7,100,0.00,,,0.00,Meteorologica,2013-02-03 11:16:00,
2013-02-03 06:21:00,32.5,32.5,30.06,SSW,197,4.6,7.6,100,0.00,,,0.00,Meteorologica,2013-02-03 11:21:00,
2013-02-03 06:26:00,32.6,32.6,30.05,SW,219,3.1,7.7,100,0.00,,,0.00,Meteorologica,2013-02-03 11:26:00,
2013-02-03 06:31:00,32.6,32.6,30.05,South,190,3.7,6.1,100,0.00,,,0.00,Meteorologica,2013-02-03 11:31:00,
2013-02-03 06:36:00,32.8,32.8,30.05,South,190,4.0,8.0,100,0.00,,,0.00,Meteorologica,2013-02-03 11:36:00,
2013-02-03 06:41:00,33.0,33.0,30.05,South,185,4.0,7.8,100,0.00,,,0.00,Meteorologica,2013-02-03 11:41:00,
2013-02-03 06:46:00,33.1,33.1,30.05,SSW,207,3.7,7.9,100,0.00,,,0.00,Meteorologica,2013-02-03 11:46:00,
2013-02-03 06:51:00,33.1,33.1,30.05,SW,218,5.0,6.6,100,0.00,,,0.00,Meteorologica,2013-02-03 11:51:00,
2013-02-03 06:56:00,33.3,33.3,30.05,SSW,208,2.6,9.2,100,0.00,,,0.00,Meteorologica,2013-02-03 11:56:00,
2013-02-03 07:01:00,33.4,33.4,30.05,SSW,198,3.3,6.0,100,0.00,,,0.00,Meteorologica,2013-02-03 12:01:00,
2013-02-03 07:06:00,33.6,33.6,30.04,SW,220,2.7,6.3,100,0.00,,,0.00,Meteorologica,2013-02-03 12:06:00,
2013-02-03 07:11:00,33.7,33.7,30.05,SSW,207,3.0,9.4,100,0.00,,,0.00,Meteorologica,2013-02-03 12:11:00,
2013-02-03 07:16:00,33.9,33.9,30.05,South,169,0.0,7.8,100,0.00,,,0.00,Meteorologica,2013-02-03 12:16:00,
2013-02-03 07:21:00,33.9,33.9,30.06,SW,222,3.7,5.3,100,0.00,,,0.00,Meteorologica,2013-02-03 12:21:00,
2013-02-03 07:26:00,34.1,34.1,30.06,SSW,198,3.0,6.9,100,0.00,,,0.00,Meteorologica,2013-02-03 12:26:00,
2013-02-03 07:31:00,34.2,34.2,30.06,South,190,0.0,4.8,100,0.00,,,0.00,Meteorologica,2013-02-03 12:31:00,
2013-02-03 07:36:00,34.2,34.2,30.06,SSE,158,1.1,2.4,100,0.00,,,0.00,Meteorologica,2013-02-03 12:36:00,
2013-02-03 07:41:00,34.2,34.2,30.05,SSW,208,0.7,3.8,100,0.00,,,0.00,Meteorologica,2013-02-03 12:41:00,
2013-02-03 07:46:00,34.0,34.0,30.05,SSW,210,3.2,4.9,100,0.00,,,0.00,Meteorologica,2013-02-03 12:46:00,
2013-02-03 07:51:00,34.0,34.0,30.05,SW,219,3.3,4.7,100,0.00,,,0.00,Meteorologica,2013-02-03 12:51:00,
2013-02-03 07:56:00,34.0,34.0,30.05,SSW,194,2.9,6.4,100,0.00,,,0.00,Meteorologica,2013-02-03 12:56:00,
2013-02-03 08:02:00,34.0,34.0,30.05,SW,230,3.9,8.9,100,0.00,,,0.00,Meteorologica,2013-02-03 13:02:00,
2013-02-03 08:07:00,34.1,34.1,30.05,WSW,244,4.4,7.9,100,0.00,,,0.00,Meteorologica,2013-02-03 13:07:00,
2013-02-03 08:12:00,34.3,34.3,30.05,SSW,207,2.2,7.8,100,0.00,,,0.00,Meteorologica,2013-02-03 13:12:00,
2013-02-03 09:00:00,35.5,35.5,30.05,SW,222,2.4,6.6,100,0.00,,,0.00,Meteorologica,2013-02-03 14:00:00,
2013-02-03 09:05:00,35.7,35.7,30.05,South,191,1.7,6.3,100,0.00,,,0.00,Meteorologica,2013-02-03 14:05:00,
2013-02-03 09:10:00,35.8,35.8,30.05,South,191,2.6,6.1,100,0.00,,,0.00,Meteorologica,2013-02-03 14:10:00,
2013-02-03 09:15:00,36.1,36.1,30.05,South,183,3.0,9.1,100,0.00,,,0.00,Meteorologica,2013-02-03 14:15:00,
2013-02-03 09:20:00,36.5,36.5,30.05,SSE,168,2.6,7.4,100,0.00,,,0.00,Meteorologica,2013-02-03 14:20:00,
2013-02-03 09:25:00,36.7,36.7,30.05,SSW,203,3.3,9.6,100,0.00,,,0.00,Meteorologica,2013-02-03 14:25:00,
2013-02-03 09:30:00,37.1,37.1,30.05,WSW,248,2.7,8.2,100,0.00,,,0.00,Meteorologica,2013-02-03 14:30:00,
2013-02-03 09:35:00,37.4,37.4,30.05,SSW,193,4.8,8.3,100,0.00,,,0.00,Meteorologica,2013-02-03 14:35:00,
2013-02-03 09:40:00,37.7,37.7,30.05,South,173,5.1,7.4,100,0.00,,,0.00,Meteorologica,2013-02-03 14:40:00,
2013-02-03 09:45:00,38.0,38.0,30.04,South,183,3.8,8.8,100,0.00,,,0.00,Meteorologica,2013-02-03 14:45:00,
2013-02-03 09:50:00,38.4,38.4,30.04,SSW,195,3.8,8.0,100,0.00,,,0.00,Meteorologica,2013-02-03 14:50:00,
2013-02-03 09:55:00,38.7,38.7,30.04,SSW,202,5.3,7.4,100,0.00,,,0.00,Meteorologica,2013-02-03 14:55:00,
2013-02-03 10:00:00,39.0,39.0,30.04,WSW,250,1.2,8.2,100,0.00,,,0.00,Meteorologica,2013-02-03 15:00:00,
2013-02-03 10:05:00,39.3,39.3,30.05,SSW,195,2.4,7.5,100,0.00,,,0.00,Meteorologica,2013-02-03 15:05:00,
2013-02-03 10:10:00,39.8,39.8,30.05,South,173,3.2,9.6,100,0.00,,,0.00,Meteorologica,2013-02-03 15:10:00,
2013-02-03 10:15:00,40.2,39.9,30.05,SSW,207,3.9,6.9,99,0.00,,,0.00,Meteorologica,2013-02-03 15:15:00,
2013-02-03 10:20:00,41.1,39.2,30.05,SW,228,5.2,10.8,93,0.00,,,0.00,Meteorologica,2013-02-03 15:20:00,
2013-02-03 10:25:00,41.7,38.4,30.05,West,262,1.8,8.1,88,0.00,,,0.00,Meteorologica,2013-02-03 15:25:00,
2013-02-03 10:30:00,42.1,37.8,30.05,SSE,165,2.6,8.8,84,0.00,,,0.00,Meteorologica,2013-02-03 15:30:00,
2013-02-03 10:35:00,42.5,38.4,30.05,WNW,284,4.3,7.0,85,0.00,,,0.00,Meteorologica,2013-02-03 15:35:00,
2013-02-03 10:40:00,43.2,38.4,30.06,SSW,193,4.6,9.8,82,0.00,,,0.00,Meteorologica,2013-02-03 15:40:00,
2013-02-03 10:45:00,43.5,37.1,30.06,SSW,213,3.8,9.1,78,0.00,,,0.00,Meteorologica,2013-02-03 15:45:00,
2013-02-03 10:50:00,44.1,38.2,30.06,South,180,5.0,8.7,79,0.00,,,0.00,Meteorologica,2013-02-03 15:50:00,
2013-02-03 10:55:00,44.6,37.9,30.06,South,183,5.3,8.2,76,0.00,,,0.00,Meteorologica,2013-02-03 15:55:00,
2013-02-03 11:00:00,44.9,37.5,30.06,West,272,2.5,9.3,75,0.00,,,0.00,Meteorologica,2013-02-03 16:00:00,
2013-02-03 11:05:00,45.2,35.1,30.06,NW,324,3.1,12.5,68,0.00,,,0.00,Meteorologica,2013-02-03 16:05:00,
2013-02-03 11:10:00,45.5,34.7,30.06,NW,323,4.5,10.5,65,0.00,,,0.00,Meteorologica,2013-02-03 16:10:00,
2013-02-03 11:15:00,46.0,35.1,30.06,SSW,197,2.0,12.5,65,0.00,,,0.00,Meteorologica,2013-02-03 16:15:00,
2013-02-03 11:20:00,46.2,33.7,30.06,West,266,3.1,11.9,61,0.00,,,0.00,Meteorologica,2013-02-03 16:20:00,
2013-02-03 11:25:00,46.4,33.9,30.06,NNW,345,4.0,10.9,61,0.00,,,0.00,Meteorologica,2013-02-03 16:25:00,
2013-02-03 11:30:00,47.0,33.4,30.06,NE,40,4.7,11.7,58,0.00,,,0.00,Meteorologica,2013-02-03 16:30:00,
2013-02-03 11:35:00,47.2,33.4,30.06,NE,42,4.2,11.7,58,0.00,,,0.00,Meteorologica,2013-02-03 16:35:00,
2013-02-03 11:40:00,47.3,33.2,30.06,WNW,284,1.5,8.7,57,0.00,,,0.00,Meteorologica,2013-02-03 16:40:00,
2013-02-03 11:45:00,47.4,32.7,30.05,West,263,5.8,6.6,56,0.00,,,0.00,Meteorologica,2013-02-03 16:45:00,
2013-02-03 11:50:00,47.4,33.4,30.05,SE,125,3.4,8.6,57,0.00,,,0.00,Meteorologica,2013-02-03 16:50:00,
2013-02-03 11:55:00,48.1,34.2,30.05,West,275,2.9,9.5,58,0.00,,,0.00,Meteorologica,2013-02-03 16:55:00,
2013-02-03 12:00:00,48.3,32.8,30.05,South,173,2.3,12.7,54,0.00,,,0.00,Meteorologica,2013-02-03 17:00:00,
2013-02-03 12:05:00,48.2,32.1,30.05,WNW,282,6.8,10.4,53,0.00,,,0.00,Meteorologica,2013-02-03 17:05:00,
2013-02-03 12:10:00,48.4,32.4,30.05,SSE,154,1.4,11.2,53,0.00,,,0.00,Meteorologica,2013-02-03 17:10:00,
2013-02-03 12:15:00,48.5,31.6,30.05,WSW,238,3.5,8.8,51,0.00,,,0.00,Meteorologica,2013-02-03 17:15:00,
2013-02-03 12:20:00,48.8,32.6,30.04,WSW,242,4.0,10.5,53,0.00,,,0.00,Meteorologica,2013-02-03 17:20:00,
2013-02-03 12:25:00,49.1,31.2,30.04,West,276,6.6,8.2,50,0.00,,,0.00,Meteorologica,2013-02-03 17:25:00,
2013-02-03 12:30:00,49.3,31.8,30.04,SE,138,3.5,11.2,50,0.00,,,0.00,Meteorologica,2013-02-03 17:30:00,
2013-02-03 12:35:00,49.3,31.6,30.04,ESE,118,1.5,14.2,50,0.00,,,0.00,Meteorologica,2013-02-03 17:35:00,
2013-02-03 12:40:00,49.5,31.3,30.05,SSW,205,3.7,9.0,49,0.00,,,0.00,Meteorologica,2013-02-03 17:40:00,
2013-02-03 12:45:00,49.5,31.3,30.05,SW,231,3.9,13.4,49,0.00,,,0.00,Meteorologica,2013-02-03 17:45:00,
2013-02-03 12:50:00,49.7,31.5,30.04,North,9,2.5,10.2,49,0.00,,,0.00,Meteorologica,2013-02-03 17:50:00,
2013-02-03 12:55:00,49.6,31.3,30.04,WNW,287,0.5,9.1,49,0.00,,,0.00,Meteorologica,2013-02-03 17:55:00,
2013-02-03 13:00:00,49.9,32.0,30.04,NE,53,1.7,8.4,50,0.00,,,0.00,Meteorologica,2013-02-03 18:00:00,
2013-02-03 13:05:00,50.2,32.4,30.04,ENE,73,0.1,8.6,50,0.00,,,0.00,Meteorologica,2013-02-03 18:05:00,
2013-02-03 13:10:00,50.7,31.2,30.04,WSW,242,5.3,13.5,47,0.00,,,0.00,Meteorologica,2013-02-03 18:10:00,
2013-02-03 13:15:00,50.8,30.4,30.04,WSW,238,2.8,11.5,45,0.00,,,0.00,Meteorologica,2013-02-03 18:15:00,
2013-02-03 13:20:00,50.5,30.6,30.04,West,278,3.7,8.7,46,0.00,,,0.00,Meteorologica,2013-02-03 18:20:00,
2013-02-03 13:26:00,50.2,30.2,30.04,NNE,14,1.3,8.9,46,0.00,,,0.00,Meteorologica,2013-02-03 18:26:00,
2013-02-03 13:31:00,50.3,30.3,30.04,NNW,347,3.2,10.4,46,0.00,,,0.00,Meteorologica,2013-02-03 18:31:00,
2013-02-03 13:36:00,50.4,30.6,30.03,NW,304,0.1,6.5,46,0.00,,,0.00,Meteorologica,2013-02-03 18:36:00,
2013-02-03 13:41:00,50.8,30.6,30.03,WSW,247,2.3,11.7,45,0.00,,,0.00,Meteorologica,2013-02-03 18:41:00,
2013-02-03 13:46:00,50.8,29.9,30.03,NNE,16,3.1,9.7,44,0.00,,,0.00,Meteorologica,2013-02-03 18:46:00,
2013-02-03 13:51:00,51.0,29.5,30.03,SW,225,5.3,10.5,43,0.00,,,0.00,Meteorologica,2013-02-03 18:51:00,
2013-02-03 13:56:00,51.2,29.3,30.03,WSW,251,3.0,10.9,42,0.00,,,0.00,Meteorologica,2013-02-03 18:56:00,
2013-02-03 14:01:00,51.5,30.0,30.03,SW,230,6.0,10.2,43,0.00,,,0.00,Meteorologica,2013-02-03 19:01:00,
2013-02-03 14:06:00,51.9,30.2,30.03,South,172,7.4,11.7,43,0.00,,,0.00,Meteorologica,2013-02-03 19:06:00,
2013-02-03 14:11:00,52.1,30.5,30.03,West,271,4.8,12.4,43,0.00,,,0.00,Meteorologica,2013-02-03 19:11:00,
2013-02-03 14:16:00,51.8,30.0,30.03,SSE,162,3.3,10.5,43,0.00,,,0.00,Meteorologica,2013-02-03 19:16:00,
2013-02-03 14:21:00,51.5,30.6,30.03,West,263,0.1,9.5,44,0.00,,,0.00,Meteorologica,2013-02-03 19:21:00,
2013-02-03 14:26:00,51.3,30.2,30.03,West,272,3.0,6.8,44,0.00,,,0.00,Meteorologica,2013-02-03 19:26:00,
2013-02-03 14:31:00,51.0,30.4,30.03,NNE,29,1.9,12.0,45,0.00,,,0.00,Meteorologica,2013-02-03 19:31:00,
2013-02-03 14:36:00,50.8,29.5,30.04,WNW,286,3.9,9.7,43,0.00,,,0.00,Meteorologica,2013-02-03 19:36:00,
2013-02-03 14:41:00,50.8,30.0,30.04,ESE,111,1.8,10.4,44,0.00,,,0.00,Meteorologica,2013-02-03 19:41:00,
2013-02-03 14:46:00,51.0,30.9,30.04,West,262,0.8,9.3,46,0.00,,,0.00,Meteorologica,2013-02-03 19:46:00,
2013-02-03 14:51:00,51.3,30.7,30.04,NE,52,3.0,7.9,45,0.00,,,0.00,Meteorologica,2013-02-03 19:51:00,
2013-02-03 14:56:00,51.6,30.3,30.04,NNW,344,0.1,8.5,44,0.00,,,0.00,Meteorologica,2013-02-03 19:56:00,
2013-02-03 15:01:00,51.9,30.1,30.04,NW,326,0.9,6.8,43,0.00,,,0.00,Meteorologica,2013-02-03 20:01:00,
2013-02-03 15:06:00,52.0,29.1,30.04,SSW,208,3.1,8.5,41,0.00,,,0.00,Meteorologica,2013-02-03 20:06:00,
2013-02-03 15:11:00,52.1,29.3,30.04,SSW,200,1.3,8.4,41,0.00,,,0.00,Meteorologica,2013-02-03 20:11:00,
2013-02-03 15:16:00,52.2,29.9,30.04,SSW,207,2.4,7.7,42,0.00,,,0.00,Meteorologica,2013-02-03 20:16:00,
2013-02-03 15:21:00,52.1,29.2,30.04,WNW,285,3.6,13.9,41,0.00,,,0.00,Meteorologica,2013-02-03 20:21:00,
2013-02-03 15:26:00,52.0,30.0,30.04,North,358,4.5,10.0,42,0.00,,,0.00,Meteorologica,2013-02-03 20:26:00,
2013-02-03 15:31:00,51.7,29.7,30.04,NNE,33,1.4,9.1,42,0.00,,,0.00,Meteorologica,2013-02-03 20:31:00,
2013-02-03 15:36:00,51.5,28.9,30.05,NNW,332,3.2,7.8,41,0.00,,,0.00,Meteorologica,2013-02-03 20:36:00,
2013-02-03 15:41:00,51.5,28.7,30.05,NNE,26,2.0,7.2,41,0.00,,,0.00,Meteorologica,2013-02-03 20:41:00,
2013-02-03 15:46:00,51.5,29.4,30.05,WNW,299,1.0,9.2,42,0.00,,,0.00,Meteorologica,2013-02-03 20:46:00,
2013-02-03 15:51:00,51.3,29.9,30.05,SW,225,2.1,5.9,43,0.00,,,0.00,Meteorologica,2013-02-03 20:51:00,
2013-02-03 15:56:00,51.2,29.9,30.05,North,359,4.2,4.8,44,0.00,,,0.00,Meteorologica,2013-02-03 20:56:00,
2013-02-03 16:01:00,51.1,29.4,30.06,NE,46,0.0,7.9,43,0.00,,,0.00,Meteorologica,2013-02-03 21:01:00,
2013-02-03 16:06:00,50.9,29.7,30.06,NE,55,2.3,6.8,44,0.00,,,0.00,Meteorologica,2013-02-03 21:06:00,
2013-02-03 16:11:00,51.0,30.0,30.06,WNW,282,0.0,5.9,44,0.00,,,0.00,Meteorologica,2013-02-03 21:11:00,
2013-02-03 16:16:00,51.0,29.4,30.06,WSW,256,2.2,6.6,43,0.00,,,0.00,Meteorologica,2013-02-03 21:16:00,
2013-02-03 16:21:00,51.1,29.6,30.06,NNW,330,1.0,6.6,43,0.00,,,0.00,Meteorologica,2013-02-03 21:21:00,
2013-02-03 16:26:00,51.2,29.5,30.06,WNW,282,3.1,9.4,43,0.00,,,0.00,Meteorologica,2013-02-03 21:26:00,
2013-02-03 16:31:00,51.0,29.8,30.06,NNE,21,0.0,5.5,43,0.00,,,0.00,Meteorologica,2013-02-03 21:31:00,
2013-02-03 16:36:00,50.9,29.6,30.06,East,81,0.0,7.6,43,0.00,,,0.00,Meteorologica,2013-02-03 21:36:00,
2013-02-03 16:41:00,50.5,29.3,30.06,NNE,28,1.2,0.0,44,0.00,,,0.00,Meteorologica,2013-02-03 21:41:00,
2013-02-03 16:46:00,50.5,29.0,30.06,WSW,247,2.2,5.8,43,0.00,,,0.00,Meteorologica,2013-02-03 21:46:00,
2013-02-03 16:51:00,50.5,29.7,30.06,NE,43,2.0,6.6,44,0.00,,,0.00,Meteorologica,2013-02-03 21:51:00,
2013-02-03 16:56:00,50.4,29.7,30.06,WSW,242,0.0,5.3,45,0.00,,,0.00,Meteorologica,2013-02-03 21:56:00,
2013-02-03 17:01:00,50.2,28.9,30.06,SW,220,3.3,9.6,43,0.00,,,0.00,Meteorologica,2013-02-03 22:01:00,
2013-02-03 17:06:00,50.0,29.3,30.06,SSE,166,0.5,8.4,44,0.00,,,0.00,Meteorologica,2013-02-03 22:06:00,
2013-02-03 17:11:00,49.8,28.9,30.06,NNW,335,4.1,7.4,44,0.00,,,0.00,Meteorologica,2013-02-03 22:11:00,
2013-02-03 17:16:00,49.8,29.8,30.06,SE,142,1.4,9.2,46,0.00,,,0.00,Meteorologica,2013-02-03 22:16:00,
2013-02-03 17:22:00,49.4,29.6,30.06,ENE,66,0.0,7.7,46,0.00,,,0.00,Meteorologica,2013-02-03 22:22:00,
2013-02-03 17:27:00,49.3,29.7,30.06,East,91,1.0,4.0,46,0.00,,,0.00,Meteorologica,2013-02-03 22:27:00,
2013-02-03 17:32:00,49.0,30.0,30.06,SSE,153,0.0,2.0,47,0.00,,,0.00,Meteorologica,2013-02-03 22:32:00,
2013-02-03 17:37:00,48.6,29.6,30.06,West,278,1.1,0.0,47,0.00,,,0.00,Meteorologica,2013-02-03 22:37:00,
2013-02-03 17:42:00,48.4,29.5,30.07,NNE,23,0.7,4.9,48,0.00,,,0.00,Meteorologica,2013-02-03 22:42:00,
2013-02-03 17:47:00,48.3,29.9,30.07,SSW,210,0.0,7.3,48,0.00,,,0.00,Meteorologica,2013-02-03 22:47:00,
2013-02-03 17:52:00,48.0,29.5,30.07,WNW,296,1.3,3.3,48,0.00,,,0.00,Meteorologica,2013-02-03 22:52:00,
2013-02-03 17:57:00,47.8,29.4,30.07,NNE,28,0.0,3.7,48,0.00,,,0.00,Meteorologica,2013-02-03 22:57:00,
2013-02-03 18:02:00,47.7,29.6,30.08,NNE,12,0.0,7.3,49,0.00,,,0.00,Meteorologica,2013-02-03 23:02:00,
2013-02-03 18:07:00,47.5,30.1,30.08,NE,52,0.0,4.5,50,0.00,,,0.00,Meteorologica,2013-02-03 23:07:00,
2013-02-03 18:12:00,47.2,30.5,30.09,NE,52,0.0,0.0,52,0.00,,,0.00,Meteorologica,2013-02-03 23:12:00,
2013-02-03 18:17:00,46.7,30.2,30.09,North,5,4.6,0.0,52,0.00,,,0.00,Meteorologica,2013-02-03 23:17:00,
2013-02-03 18:22:00,46.3,30.1,30.09,North,7,0.3,6.1,53,0.00,,,0.00,Meteorologica,2013-02-03 23:22:00,
2013-02-03 18:27:00,46.1,30.4,30.09,NE,50,0.4,6.2,54,0.00,,,0.00,Meteorologica,2013-02-03 23:27:00,
2013-02-03 18:32:00,45.8,30.6,30.09,NW,314,3.6,4.3,55,0.00,,,0.00,Meteorologica,2013-02-03 23:32:00,
2013-02-03 18:37:00,45.3,30.6,30.10,ENE,60,0.8,7.7,56,0.00,,,0.00,Meteorologica,2013-02-03 23:37:00,
2013-02-03 18:42:00,44.8,30.8,30.10,NE,42,2.8,9.6,57,0.00,,,0.00,Meteorologica,2013-02-03 23:42:00,
2013-02-03 18:47:00,44.4,30.4,30.11,NNE,12,3.1,8.6,57,0.00,,,0.00,Meteorologica,2013-02-03 23:47:00,
2013-02-03 18:52:00,44.2,30.6,30.11,SE,134,0.9,6.0,58,0.00,,,0.00,Meteorologica,2013-02-03 23:52:00,
2013-02-03 18:57:00,43.7,30.5,30.11,North,351,0.0,6.1,59,0.00,,,0.00,Meteorologica,2013-02-03 23:57:00,
2013-02-03 19:03:00,43.4,30.6,30.12,North,351,0.0,2.5,60,0.00,,,0.00,Meteorologica,2013-02-04 00:03:00,
2013-02-03 19:08:00,43.2,30.6,30.12,North,351,0.0,0.0,60,0.00,,,0.00,Meteorologica,2013-02-04 00:08:00,
2013-02-03 19:13:00,42.8,30.4,30.13,North,5,1.2,0.0,61,0.00,,,0.00,Meteorologica,2013-02-04 00:13:00,
2013-02-03 19:18:00,42.6,30.4,30.13,NNE,21,5.8,8.9,61,0.00,,,0.00,Meteorologica,2013-02-04 00:18:00,
2013-02-03 19:23:00,42.3,30.4,30.13,North,8,4.7,7.9,62,0.00,,,0.00,Meteorologica,2013-02-04 00:23:00,
2013-02-03 19:28:00,42.1,30.4,30.14,NE,43,4.4,8.6,62,0.00,,,0.00,Meteorologica,2013-02-04 00:28:00,
2013-02-03 19:33:00,41.7,30.3,30.14,North,356,3.7,7.3,63,0.00,,,0.00,Meteorologica,2013-02-04 00:33:00,
2013-02-03 19:38:00,41.4,30.2,30.14,NNE,18,4.6,7.4,63,0.00,,,0.00,Meteorologica,2013-02-04 00:38:00,
2013-02-03 19:43:00,41.3,30.2,30.14,NE,42,0.0,10.1,64,0.00,,,0.00,Meteorologica,2013-02-04 00:43:00,
2013-02-03 19:48:00,41.0,30.1,30.14,NNE,16,3.4,6.0,64,0.00,,,0.00,Meteorologica,2013-02-04 00:48:00,
2013-02-03 19:53:00,40.8,29.9,30.14,NNE,16,1.4,7.1,64,0.00,,,0.00,Meteorologica,2013-02-04 00:53:00,
2013-02-03 19:58:00,40.7,30.0,30.14,NNE,32,0.0,7.4,65,0.00,,,0.00,Meteorologica,2013-02-04 00:58:00,
2013-02-03 20:03:00,40.3,29.9,30.14,NNE,25,0.0,6.4,65,0.00,,,0.00,Meteorologica,2013-02-04 01:03:00,
2013-02-03 20:08:00,40.0,29.9,30.14,North,11,0.0,5.9,66,0.00,,,0.00,Meteorologica,2013-02-04 01:08:00,
2013-02-03 20:13:00,39.6,29.7,30.14,NNE,18,3.0,4.0,67,0.00,,,0.00,Meteorologica,2013-02-04 01:13:00,
2013-02-03 20:18:00,39.4,29.6,30.14,NNE,28,1.9,6.8,67,0.00,,,0.00,Meteorologica,2013-02-04 01:18:00,
2013-02-03 20:23:00,39.0,29.4,30.14,NNE,22,3.9,6.0,68,0.00,,,0.00,Meteorologica,2013-02-04 01:23:00,
2013-02-03 20:28:00,38.9,29.4,30.14,North,9,0.3,8.2,68,0.00,,,0.00,Meteorologica,2013-02-04 01:28:00,
2013-02-03 20:33:00,38.7,29.1,30.14,North,10,2.4,6.1,67,0.00,,,0.00,Meteorologica,2013-02-04 01:33:00,
2013-02-03 20:38:00,38.7,29.3,30.14,NNE,15,0.0,7.3,68,0.00,,,0.00,Meteorologica,2013-02-04 01:38:00,
2013-02-03 20:43:00,38.4,29.2,30.14,NNE,15,2.7,4.8,69,0.00,,,0.00,Meteorologica,2013-02-04 01:43:00,
2013-02-03 20:48:00,38.3,29.2,30.15,ENE,63,1.6,8.0,69,0.00,,,0.00,Meteorologica,2013-02-04 01:48:00,
2013-02-03 20:53:00,38.1,29.2,30.15,NNE,32,0.0,3.3,69,0.00,,,0.00,Meteorologica,2013-02-04 01:53:00,
2013-02-03 20:58:00,37.9,29.1,30.15,NNE,26,0.9,5.8,70,0.00,,,0.00,Meteorologica,2013-02-04 01:58:00,
2013-02-03 21:04:00,37.7,29.2,30.15,NE,45,0.0,3.5,71,0.00,,,0.00,Meteorologica,2013-02-04 02:04:00,
2013-02-03 21:09:00,37.5,29.3,30.15,NNE,32,0.0,4.2,71,0.00,,,0.00,Meteorologica,2013-02-04 02:09:00,
2013-02-03 21:14:00,37.2,29.0,30.15,NNE,32,3.0,6.1,71,0.00,,,0.00,Meteorologica,2013-02-04 02:14:00,
2013-02-03 21:19:00,36.9,28.9,30.15,NNE,30,2.2,5.0,72,0.00,,,0.00,Meteorologica,2013-02-04 02:19:00,
2013-02-03 21:24:00,37.0,28.9,30.16,NNE,19,0.0,5.2,72,0.00,,,0.00,Meteorologica,2013-02-04 02:24:00,
2013-02-03 21:29:00,36.9,28.7,30.16,NNE,19,0.0,0.0,71,0.00,,,0.00,Meteorologica,2013-02-04 02:29:00,
2013-02-03 21:35:00,36.8,28.7,30.16,NE,43,0.0,4.9,72,0.00,,,0.00,Meteorologica,2013-02-04 02:35:00,
2013-02-03 21:40:00,36.7,28.9,30.16,NE,43,0.0,0.0,72,0.00,,,0.00,Meteorologica,2013-02-04 02:40:00,
2013-02-03 21:45:00,36.3,28.7,30.16,NE,43,0.0,0.0,73,0.00,,,0.00,Meteorologica,2013-02-04 02:45:00,
2013-02-03 21:50:00,36.3,28.8,30.16,NE,43,0.0,0.0,73,0.00,,,0.00,Meteorologica,2013-02-04 02:50:00,
2013-02-03 21:55:00,36.0,28.9,30.16,NE,43,0.0,0.0,75,0.00,,,0.00,Meteorologica,2013-02-04 02:55:00,
2013-02-03 22:00:00,35.7,28.9,30.16,NE,43,0.0,0.0,75,0.00,,,0.00,Meteorologica,2013-02-04 03:00:00,
2013-02-03 22:05:00,35.5,29.0,30.16,NE,43,0.0,0.0,76,0.00,,,0.00,Meteorologica,2013-02-04 03:05:00,
2013-02-03 22:10:00,35.2,29.0,30.15,NE,43,0.0,0.0,77,0.00,,,0.00,Meteorologica,2013-02-04 03:10:00,
2013-02-03 22:16:00,34.9,28.8,30.15,NE,43,0.0,0.0,78,0.00,,,0.00,Meteorologica,2013-02-04 03:16:00,
2013-02-03 22:21:00,34.7,28.7,30.15,NE,43,0.0,0.0,78,0.00,,,0.00,Meteorologica,2013-02-04 03:21:00,
2013-02-03 22:26:00,34.7,28.8,30.16,NE,43,0.0,0.0,78,0.00,,,0.00,Meteorologica,2013-02-04 03:26:00,
2013-02-03 22:31:00,34.3,28.5,30.16,NE,43,0.0,0.0,79,0.00,,,0.00,Meteorologica,2013-02-04 03:31:00,
2013-02-03 22:36:00,34.3,28.8,30.16,NE,43,0.0,0.0,80,0.00,,,0.00,Meteorologica,2013-02-04 03:36:00,
2013-02-03 22:41:00,34.0,28.8,30.16,NE,43,0.0,0.0,80,0.00,,,0.00,Meteorologica,2013-02-04 03:41:00,
2013-02-03 22:46:00,33.9,28.9,30.16,NE,43,0.0,0.0,81,0.00,,,0.00,Meteorologica,2013-02-04 03:46:00,
2013-02-03 22:52:00,33.5,28.7,30.16,NE,43,0.0,0.0,82,0.00,,,0.00,Meteorologica,2013-02-04 03:52:00,
2013-02-03 22:57:00,33.5,28.8,30.16,NE,43,0.0,0.0,82,0.00,,,0.00,Meteorologica,2013-02-04 03:57:00,
2013-02-03 23:02:00,33.3,28.8,30.16,NE,43,0.0,0.0,83,0.00,,,0.00,Meteorologica,2013-02-04 04:02:00,
2013-02-03 23:07:00,33.1,28.7,30.16,NE,43,0.0,0.0,83,0.00,,,0.00,Meteorologica,2013-02-04 04:07:00,
2013-02-03 23:12:00,33.1,29.0,30.16,NE,43,0.0,0.0,84,0.00,,,0.00,Meteorologica,2013-02-04 04:12:00,
2013-02-03 23:17:00,32.8,28.8,30.16,NE,43,0.0,0.0,85,0.00,,,0.00,Meteorologica,2013-02-04 04:17:00,
2013-02-03 23:22:00,32.7,28.8,30.16,NE,43,0.0,0.0,85,0.00,,,0.00,Meteorologica,2013-02-04 04:22:00,
2013-02-03 23:27:00,32.5,28.8,30.16,NE,43,0.0,0.0,86,0.00,,,0.00,Meteorologica,2013-02-04 04:27:00,
2013-02-03 23:32:00,32.6,28.9,30.16,NE,43,0.0,0.0,86,0.00,,,0.00,Meteorologica,2013-02-04 04:32:00,
2013-02-03 23:37:00,32.5,28.7,30.16,NE,43,0.0,0.0,86,0.00,,,0.00,Meteorologica,2013-02-04 04:37:00,
2013-02-03 23:42:00,32.5,28.7,30.16,NE,43,0.0,0.0,85,0.00,,,0.00,Meteorologica,2013-02-04 04:42:00,
2013-02-03 23:47:00,32.7,28.8,30.16,NE,43,0.0,0.0,85,0.00,,,0.00,Meteorologica,2013-02-04 04:47:00,
2013-02-03 23:52:00,32.7,28.6,30.16,NE,43,0.0,0.0,84,0.00,,,0.00,Meteorologica,2013-02-04 04:52:00,
2013-02-03 23:58:00,32.7,28.6,30.16,NE,43,0.0,0.0,84,0.00,,,0.00,Meteorologica,2013-02-04 04:58:00,